GFSGBSN_925_temp_273.txt.gz
Temp
5 5 4 4 4 4 4 5 5 4 4 4 4 5 5 5 5 5 7 8 9 11 12 12 11 12 12 13 16 20 20 20 20 20 20 21 22 23 25 24 24 25 23 20 20 20 19
4 4 4 4 4 4 4 5 5 4 4 4 4 4 4 4 5 6 8 10 11 11 12 12 11 11 11 15 19 19 19 19 20 20 20 21 22 22 23 24 24 23 21 20 20 20 20
4 4 4 4 4 4 4 4 4 4 4 4 4 4 4 4 5 8 9 11 12 13 14 13 12 10 10 15 18 18 19 19 20 20 21 21 21 22 23 24 23 22 21 21 21 20 19
4 4 4 4 3 3 4 3 3 3 3 4 4 4 4 4 5 8 10 11 13 14 14 13 11 10 13 17 17 18 19 20 20 20 20 22 21 22 22 23 23 23 23 23 21 21 19
4 4 4 3 3 3 3 3 3 3 3 3 4 4 4 4 5 8 11 12 13 13 13 12 11 11 14 17 17 19 19 20 20 20 21 21 21 22 22 23 23 23 25 22 21 21 20
3 3 4 4 3 3 4 3 3 3 3 3 3 4 3 3 6 9 11 12 12 11 11 11 10 12 16 17 17 18 19 20 20 20 20 21 19 21 20 23 24 24 22 22 22 21 20
3 3 3 3 3 3 3 3 3 3 3 3 3 3 3 4 6 9 11 11 10 12 10 13 13 13 14 16 17 18 19 19 19 19 19 19 20 20 21 20 22 24 23 23 20 19 20
3 3 3 3 3 3 3 3 3 3 3 3 3 3 3 3 7 8 9 7 6 5 7 10 10 11 12 14 15 17 18 19 18 19 17 18 18 19 20 20 22 23 24 24 19 18 19
2 2 2 3 3 3 2 2 2 3 3 3 2 2 2 4 7 8 6 6 6 5 8 11 11 12 13 14 15 16 18 18 18 17 17 18 19 18 20 21 22 23 24 21 22 17 17
2 2 2 2 2 2 2 2 2 2 2 2 2 2 2 4 6 5 6 7 6 6 11 14 13 14 14 15 16 17 18 19 17 18 16 17 18 18 18 20 22 22 23 22 19 21 21
2 2 2 2 2 2 2 2 2 2 2 2 2 2 2 3 3 4 7 8 7 6 12 16 16 16 15 17 18 17 16 18 18 17 17 18 17 18 19 20 21 23 23 22 20 21 20
2 2 2 2 2 2 2 2 2 2 2 2 1 3 3 3 3 5 6 7 8 10 11 15 17 16 16 17 18 17 18 18 18 17 16 18 17 18 20 19 21 21 21 21 20 18 17
2 2 2 2 2 2 2 2 2 2 2 1 2 4 4 4 4 4 6 7 10 9 14 15 15 16 16 16 17 17 17 17 18 16 16 17 18 19 19 20 20 22 21 17 18 17 21
2 2 2 2 2 2 2 2 2 1 1 1 3 5 5 3 4 5 5 10 8 11 11 13 14 14 15 16 16 17 16 17 16 17 16 17 17 19 19 20 21 21 22 19 20 20 21
2 2 2 1 1 1 2 2 1 1 1 1 2 5 5 5 5 5 7 6 8 10 10 11 13 14 15 16 16 16 16 17 17 17 17 16 17 18 18 21 22 21 19 23 21 19 20
1 1 1 1 1 1 1 1 1 1 1 1 0 1 4 5 6 5 7 6 7 9 9 11 11 12 13 13 14 15 15 16 18 16 19 18 17 18 19 20 20 21 22 19 19 19 20
1 1 1 1 1 1 1 1 1 1 1 1 0 2 5 5 6 5 4 5 6 8 8 10 10 11 12 11 11 14 15 15 14 16 17 18 17 18 18 19 21 20 20 20 21 20 21
1 1 1 1 1 1 1 1 1 1 1 1 -1 1 4 5 4 3 3 3 5 5 6 7 10 10 10 10 10 12 13 14 10 11 15 17 17 17 18 18 18 20 20 21 19 20 20
1 1 1 1 1 1 1 1 1 1 1 0 -1 -0 4 4 0 0 2 4 5 5 5 5 6 7 8 9 10 11 11 12 9 11 12 14 16 16 17 17 18 18 19 20 21 19 20
1 1 1 1 1 1 1 1 1 0 0 1 -1 0 -1 -1 0 1 1 3 3 6 4 4 4 5 5 6 8 8 8 9 7 10 10 12 15 17 17 18 17 17 17 18 19 18 20
1 1 1 1 0 0 1 1 0 0 0 1 -3 -2 -1 -2 -2 0 1 2 3 2 3 5 3 2 2 4 6 6 6 6 8 8 8 9 10 14 17 19 17 17 18 18 18 20 19
1 1 0 0 0 0 1 1 0 0 -0 0 -2 -2 -2 -2 0 0 1 1 2 1 1 2 2 2 3 2 3 3 5 5 5 7 7 8 9 11 14 16 17 17 17 18 19 20 20
0 0 0 0 0 0 0 1 0 0 -0 -1 -3 -3 -2 -2 -1 -1 -0 1 0 0 1 2 1 1 2 3 4 4 4 4 5 5 5 6 9 10 13 15 15 14 16 18 18 20 19
0 0 0 0 0 0 0 0 0 0 -0 -1 -1 -2 -2 -2 -0 0 1 0 0 0 0 1 1 1 3 3 3 4 4 4 5 5 6 7 8 9 10 13 13 18 19 19 18 19 18
0 0 0 0 0 -0 -0 0 0 0 0 -1 -1 -2 -2 -2 -0 0 0 0 1 1 0 0 2 2 2 2 3 4 5 6 7 6 6 6 8 8 9 13 16 17 17 17 17 19 18
-0 -0 -0 0 -0 -0 -0 -0 0 0 0 0 -0 -1 -2 -2 -1 1 0 0 -0 -0 -0 1 2 2 2 1 1 2 3 7 8 9 8 7 8 8 9 10 13 17 17 16 17 17 20
-0 -0 -0 -0 -0 -0 -0 -0 -0 -0 -0 -0 -0 -0 -2 -1 0 0 -1 -1 -0 -0 -1 -0 1 1 2 -0 -0 1 2 5 5 7 9 7 6 8 9 9 12 15 17 17 17 18 18
-0 -0 -0 -0 -0 -0 -0 -0 -1 -1 -1 -1 -1 -0 -1 -1 -0 -1 -0 -0 -0 -0 -1 0 -0 -0 -0 -1 0 1 2 3 2 6 7 7 8 8 10 9 10 15 14 17 18 16 17
-1 -0 -0 -0 -0 -0 -1 -1 -1 -1 -1 -1 -1 -1 -1 -2 -1 -1 -1 0 1 1 1 -1 -0 1 1 -0 -0 -0 -1 -1 0 2 7 6 7 7 11 13 14 13 15 16 15 17 17

GFSGBSN_925_temp_276.txt.gz
Temp
5 5 4 4 4 4 4 4 4 4 4 4 5 5 5 5 5 5 6 9 11 12 12 12 12 12 13 19 22 19 20 19 19 21 23 26 27 28 28 30 29 29 29 27 28 28 29
4 4 4 4 4 4 4 4 4 4 4 4 4 4 4 4 4 5 6 10 11 12 13 13 13 12 14 19 19 18 18 19 21 22 24 25 27 28 28 28 29 30 28 27 27 27 26
4 4 4 4 4 4 4 4 4 4 3 4 4 4 4 4 4 5 7 11 12 13 14 14 13 11 15 20 18 18 19 21 21 22 25 24 25 26 28 28 27 27 26 26 26 26 26
4 4 4 4 3 4 4 4 4 4 4 4 4 4 4 4 4 6 9 11 12 13 14 13 12 12 18 17 18 18 20 21 21 21 22 23 24 25 26 27 27 27 28 27 26 26 25
4 4 4 4 4 4 4 3 3 4 3 3 4 3 3 3 5 7 10 11 12 12 13 12 12 14 20 18 19 20 20 22 22 22 22 22 24 26 26 26 27 28 28 28 25 26 25
3 3 3 3 3 3 3 3 3 3 3 3 3 3 3 3 5 8 10 12 12 11 11 11 13 15 19 21 20 19 20 21 23 23 23 23 24 25 26 27 27 28 28 29 27 25 26
3 3 3 3 3 3 3 3 3 3 3 3 3 3 3 3 6 8 9 12 16 16 14 18 19 18 20 19 18 21 21 22 23 23 23 23 24 24 26 27 28 29 29 28 29 26 26
3 3 3 3 3 3 3 3 3 3 3 3 2 3 2 3 7 8 10 12 9 8 13 16 16 17 17 17 19 21 21 22 22 22 23 22 22 26 26 27 26 26 27 29 27 24 25
3 3 3 3 3 3 3 3 3 3 2 2 2 2 2 4 7 7 9 8 7 7 11 17 16 17 18 17 19 21 22 23 22 22 22 23 24 23 23 24 24 26 26 28 26 23 25
2 2 3 3 3 3 3 3 3 2 2 2 2 2 4 7 8 7 9 7 7 6 16 20 17 18 17 19 18 21 22 22 21 22 22 22 24 22 22 23 25 25 27 27 28 24 24
2 2 2 2 2 2 2 2 2 2 2 2 2 2 5 5 6 9 7 6 6 8 16 19 18 18 19 19 20 20 21 22 22 21 21 22 21 22 22 23 25 24 27 26 27 25 25
2 2 2 2 2 2 2 2 2 2 2 2 2 4 5 5 6 6 5 6 8 15 15 19 19 19 18 19 21 20 20 21 22 21 21 22 22 22 23 24 23 25 25 26 26 25 24
2 2 2 2 2 2 2 2 2 2 2 2 3 5 5 4 5 4 4 10 14 13 18 17 17 18 19 19 20 20 20 20 20 19 20 21 21 22 21 22 23 23 24 23 22 23 23
2 2 2 2 2 2 2 2 2 2 2 2 4 5 4 5 4 4 7 14 11 15 15 16 16 17 18 20 20 20 20 21 21 21 21 21 21 22 23 22 23 23 24 23 21 23 24
2 2 2 2 2 2 2 2 2 2 2 2 3 4 6 5 5 5 12 11 12 12 12 13 16 17 19 19 18 19 20 21 22 21 20 21 20 23 23 23 23 23 24 26 24 25 25
2 2 2 2 1 1 1 1 2 1 1 2 3 4 7 5 7 8 12 9 11 10 10 13 13 15 16 17 16 18 20 19 20 22 22 21 19 22 23 23 24 23 25 23 24 22 22
1 1 1 1 1 1 1 1 1 1 1 2 4 9 6 6 7 12 8 8 8 8 9 11 12 13 14 14 15 16 18 15 15 17 19 21 20 20 21 21 22 22 22 23 24 24 23
1 1 1 1 1 1 1 1 1 1 1 3 4 6 5 4 7 5 5 5 7 8 9 9 10 11 11 12 13 15 16 14 12 15 17 20 20 19 20 23 24 24 23 23 22 22 24
1 1 1 1 1 1 1 1 1 1 1 2 4 4 5 6 4 4 5 6 7 7 7 7 7 7 8 9 11 14 13 13 11 13 12 15 18 17 19 21 22 21 23 24 23 23 23
1 1 1 1 1 1 1 1 1 0 1 2 4 3 4 5 5 4 4 5 6 7 6 6 5 7 7 9 10 10 11 11 10 11 10 13 16 18 18 21 22 20 21 23 23 21 22
1 1 1 1 1 1 1 1 1 0 1 2 3 2 2 2 2 4 5 5 5 4 5 6 5 5 4 6 7 9 8 9 10 10 11 11 13 17 18 20 21 21 21 22 22 22 21
1 1 1 0 0 0 1 1 1 0 0 2 2 2 3 3 3 4 3 3 4 4 3 4 4 4 4 4 5 5 7 7 7 9 8 9 11 13 14 17 19 19 21 22 22 22 23
1 1 0 0 0 0 0 0 0 0 0 1 0 -0 2 2 3 3 3 3 3 3 4 4 4 4 4 5 5 5 5 5 6 6 6 7 10 11 13 17 18 17 19 21 22 23 23
1 1 0 0 0 0 0 0 0 0 0 -0 -0 0 1 2 3 3 3 3 3 3 3 4 4 4 5 5 5 6 6 6 7 7 8 7 9 9 10 14 13 19 22 22 21 22 23
0 0 0 0 0 0 0 0 0 0 0 -0 -1 -1 1 1 3 3 4 4 3 4 4 4 4 5 5 4 4 4 7 8 9 9 9 9 9 9 9 13 16 19 21 21 21 21 23
0 -0 0 0 0 -0 0 -0 -0 0 0 -0 -0 -1 -1 1 2 3 3 3 3 3 4 4 5 5 4 4 3 2 4 7 8 9 12 10 9 10 11 10 12 18 20 21 21 19 23
-0 -0 -0 -0 0 -0 -0 -0 -0 -0 -0 -0 -1 -1 -1 -0 2 3 2 2 3 3 2 3 4 4 4 3 2 2 3 6 5 8 11 9 8 7 10 10 14 18 19 21 18 20 23
-0 -0 -0 -0 -0 0 -0 -0 -0 -0 0 -0 -1 -1 -1 0 2 2 3 2 2 2 2 4 2 3 3 2 2 3 4 5 4 7 7 8 7 8 9 10 11 18 18 17 14 16 14
-0 -0 -0 -0 -0 -0 -0 -0 -0 -0 -0 -0 -1 -0 -1 -1 1 1 1 1 2 2 2 2 2 3 3 2 3 3 2 3 3 3 7 6 5 4 4 11 16 16 13 13 12 12 12

GFSGBSN_925_temp_279.txt.gz
Temp
5 5 4 4 4 4 4 4 4 5 4 4 4 5 5 5 5 5 5 6 10 12 12 13 14 13 14 21 25 22 21 21 21 23 25 28 28 30 30 32 33 32 33 33 32 32 34
5 5 4 4 4 4 4 4 4 4 4 4 4 4 4 4 4 4 5 7 10 12 13 14 14 13 15 21 23 22 22 23 24 25 27 28 29 30 30 31 32 33 33 32 32 32 32
4 4 4 4 4 4 4 4 4 4 4 4 4 4 4 4 4 4 5 9 11 12 13 14 14 13 19 23 22 23 22 23 25 25 27 27 28 28 30 30 32 32 31 31 31 31 30
4 4 4 4 4 4 4 4 4 4 3 3 3 3 3 3 4 5 8 11 12 12 13 14 14 15 20 22 22 22 23 24 24 24 25 26 26 27 29 31 30 30 30 30 31 31 31
4 4 4 4 4 4 4 4 4 4 3 3 3 3 3 3 5 7 10 11 12 12 13 13 13 17 22 21 22 23 24 25 25 25 25 25 26 27 28 28 28 30 30 30 31 31 30
3 4 4 4 4 4 4 4 3 3 3 3 3 3 3 3 7 9 10 12 12 12 12 13 16 18 21 24 23 23 23 24 25 26 25 25 26 26 27 28 27 29 29 31 31 30 30
3 3 4 4 4 3 4 4 3 3 3 3 3 3 3 4 8 10 10 16 17 17 16 21 23 23 23 23 22 23 24 24 25 25 24 26 26 26 27 28 30 31 31 31 32 32 29
3 3 3 3 3 3 3 3 3 3 3 3 3 3 3 6 8 10 12 16 13 11 15 21 21 22 22 22 21 24 24 24 24 24 26 26 25 27 28 29 29 29 30 31 32 32 29
3 3 3 3 3 3 3 3 3 3 3 3 2 2 6 7 9 11 12 11 11 11 15 21 21 21 22 21 21 24 24 25 25 24 25 25 27 27 27 28 27 28 28 29 30 29 29
3 3 3 3 3 3 3 3 3 3 3 2 2 3 6 9 9 11 13 10 10 9 18 22 21 21 21 21 21 24 25 25 25 24 25 26 27 26 25 25 27 26 29 29 30 28 27
3 3 3 3 2 2 3 3 3 3 2 2 2 4 6 6 9 13 10 9 9 9 17 22 21 21 22 21 23 24 25 25 24 24 25 25 25 25 25 25 26 26 28 28 29 29 27
2 2 2 2 2 2 2 2 2 2 2 2 3 5 6 8 10 9 8 8 10 16 16 21 22 21 21 22 23 24 23 24 25 24 25 24 27 25 25 26 26 27 26 27 28 28 26
2 2 2 2 2 2 2 2 2 2 2 2 3 5 6 8 8 7 8 12 15 13 21 20 20 21 21 22 23 23 22 22 22 21 22 24 24 25 24 24 25 26 24 23 24 26 25
2 2 2 2 2 2 2 2 2 2 2 2 4 6 8 8 7 7 10 15 12 18 19 19 18 19 20 23 23 23 22 22 23 23 24 24 23 25 26 24 25 25 25 24 22 24 26
2 2 2 2 2 2 2 2 2 2 2 3 5 8 9 7 6 8 13 14 14 16 14 14 17 19 21 22 21 22 22 23 24 24 22 23 23 27 26 26 25 24 25 26 25 26 27
2 2 2 2 2 2 2 2 2 2 3 4 6 9 9 6 7 10 14 11 13 11 12 14 15 18 18 21 19 20 22 20 20 22 23 23 21 24 25 25 25 24 26 24 25 23 23
1 1 2 1 2 1 1 1 1 1 2 5 8 12 8 8 9 14 11 12 10 12 12 12 14 15 16 17 18 18 20 16 16 17 19 21 21 22 24 23 23 24 24 25 25 25 24
1 1 1 1 1 1 1 1 1 1 2 4 9 8 7 8 10 8 8 8 9 11 12 12 12 12 13 14 15 16 18 16 14 15 16 17 18 20 22 24 25 25 25 25 24 23 25
1 1 1 1 1 1 1 1 1 1 2 3 8 8 8 9 6 6 8 9 10 9 9 9 9 10 11 11 12 15 16 13 13 14 12 14 17 18 20 23 24 23 24 25 25 24 24
1 1 1 1 1 1 1 1 1 1 2 3 7 5 7 8 8 7 7 8 8 9 8 9 8 9 9 10 13 13 14 14 13 13 10 13 15 17 19 21 23 22 23 24 24 23 23
1 1 1 1 1 1 1 1 1 1 2 3 6 5 5 5 5 7 7 7 7 7 8 8 8 8 7 7 8 10 11 10 12 12 12 12 12 16 18 20 21 21 22 24 23 24 23
1 1 1 1 0 1 1 1 1 1 2 5 4 3 5 7 6 7 6 6 6 6 6 6 7 7 7 6 7 7 9 9 9 11 12 11 9 13 13 16 18 18 20 22 24 24 24
1 1 1 1 0 0 1 1 1 0 1 4 4 4 3 5 7 6 6 6 6 6 6 7 6 6 6 7 7 7 7 7 7 8 8 8 9 11 11 15 17 16 19 21 22 24 24
1 1 1 0 1 1 1 1 1 1 1 2 3 3 3 3 6 6 6 6 6 6 6 6 7 6 8 8 7 7 8 8 8 8 9 8 9 11 11 12 10 17 21 22 22 23 24
1 1 0 0 1 1 1 0 1 1 0 1 1 2 2 3 4 5 6 6 6 6 6 6 7 8 7 6 5 5 6 8 10 10 10 10 9 9 10 12 13 16 19 21 22 22 24
0 0 0 0 0 0 0 0 0 1 0 0 1 1 1 2 4 5 5 5 4 5 5 6 8 7 7 6 4 3 4 7 8 11 13 12 11 10 10 10 11 15 18 21 21 20 20
0 0 0 0 0 0 0 0 0 0 0 0 1 0 -0 1 4 5 4 4 5 5 4 5 6 6 6 4 3 3 5 7 6 7 10 12 11 10 10 10 12 17 19 20 16 16 15
-0 -0 -0 -0 0 0 -0 0 0 0 0 0 0 0 -0 1 3 4 4 4 4 4 3 5 4 5 4 3 3 4 5 7 7 8 9 9 8 7 10 10 9 17 17 15 12 14 14
-0 -0 -0 -0 -0 0 0 -0 0 0 0 -0 -0 1 0 0 2 4 3 3 4 4 4 4 3 4 4 3 4 4 4 5 6 6 9 7 9 9 5 8 15 10 11 12 13 12 12

GFSGBSN_925_temp_282.txt.gz
Temp
5 5 5 5 5 5 5 5 4 4 4 4 4 4 4 4 5 5 5 5 7 11 12 13 14 14 14 20 23 23 23 23 22 23 25 27 28 29 29 30 32 32 33 34 35 34 33
5 5 5 4 4 5 5 4 4 4 4 4 4 4 4 4 4 4 4 6 9 12 13 14 14 14 14 20 25 25 24 24 25 26 27 28 28 30 30 30 31 33 33 34 34 33 33
4 5 4 4 4 4 4 4 4 4 4 4 4 4 4 4 4 4 7 10 11 12 13 14 14 12 18 21 25 24 24 24 25 26 27 28 29 29 30 29 31 32 31 33 33 33 32
4 4 4 4 4 4 4 4 4 4 4 4 4 4 3 4 5 8 10 11 12 13 13 14 14 14 19 24 24 24 24 25 25 26 26 27 27 27 28 29 30 30 31 29 32 32 32
4 4 4 4 4 4 4 4 4 4 4 4 4 3 3 4 7 10 11 12 12 12 13 13 13 16 21 22 23 24 24 25 26 26 26 26 27 26 27 26 27 29 28 29 31 32 32
4 4 4 4 4 4 4 4 4 4 3 3 3 3 3 6 8 11 12 14 13 12 13 13 16 19 21 24 26 25 25 25 26 27 26 26 25 25 26 26 26 27 28 29 30 32 32
4 4 4 4 4 4 4 4 4 3 3 3 3 3 4 7 9 11 12 13 17 16 16 20 22 22 25 25 24 24 25 25 26 26 24 26 24 24 26 27 28 29 29 30 31 33 31
3 3 4 4 4 4 4 4 3 3 3 3 3 3 6 7 10 12 14 16 14 13 14 19 21 22 24 25 23 25 26 24 24 24 25 25 24 26 28 28 28 28 28 29 31 33 31
3 3 3 3 3 3 3 3 3 3 3 3 3 3 7 8 10 12 14 13 13 12 14 20 23 23 24 24 23 23 26 25 25 24 25 25 26 28 27 27 27 28 28 29 29 32 32
3 3 3 3 3 3 3 3 3 3 3 2 3 3 7 8 10 13 14 12 11 11 16 22 22 23 23 23 22 25 26 25 25 24 25 25 27 27 27 26 27 26 29 29 29 29 26
3 3 3 3 3 3 3 3 3 3 3 2 3 3 7 7 8 13 11 11 11 11 17 23 23 23 24 22 24 25 25 26 24 25 25 24 26 26 26 26 27 26 27 27 28 28 28
3 3 3 3 2 3 3 2 2 2 2 3 3 4 6 9 11 10 10 10 11 14 16 23 23 22 22 23 23 25 24 25 26 24 25 25 27 27 26 27 27 27 26 26 26 27 25
2 2 2 2 2 2 2 2 2 2 2 4 4 6 7 7 9 9 9 12 15 13 23 22 21 22 22 22 24 24 23 23 22 21 22 24 24 26 27 25 26 26 25 23 22 23 24
2 2 2 2 2 2 2 2 2 2 3 4 5 8 8 10 8 8 10 14 12 19 19 18 19 19 19 22 23 24 23 23 24 23 23 23 23 25 26 25 24 25 24 22 20 22 24
2 2 2 2 2 2 2 2 2 2 3 4 4 9 10 8 8 9 12 13 14 15 15 14 17 20 21 22 23 23 23 23 24 24 22 22 23 26 27 27 26 24 23 26 23 24 23
1 2 2 2 2 2 2 2 2 2 3 5 4 9 10 9 9 10 13 11 14 14 14 14 15 19 18 20 20 21 21 18 17 19 19 20 20 24 26 27 27 25 26 23 24 21 21
1 1 1 2 2 2 2 2 2 2 3 4 8 12 8 10 10 13 11 13 12 13 13 13 14 14 15 16 17 18 19 15 15 16 19 19 19 20 23 24 24 24 24 24 24 24 22
1 1 1 1 2 1 1 1 1 2 2 4 9 8 9 9 9 9 9 11 11 12 13 12 13 12 13 13 14 15 17 16 14 15 14 16 15 17 20 23 25 25 24 24 22 22 23
1 1 1 1 1 1 1 1 1 2 2 2 8 9 10 10 7 7 10 11 11 11 10 10 11 12 12 11 11 15 16 14 14 14 12 12 15 16 18 21 23 23 24 24 24 24 23
1 1 1 1 1 1 1 1 1 2 3 2 7 5 8 9 9 9 9 10 10 11 10 10 10 11 11 10 11 12 13 14 13 13 11 12 13 14 15 18 20 19 22 24 23 21 22
1 1 1 1 1 1 1 1 1 2 3 2 6 5 7 6 7 8 9 8 9 9 9 9 9 10 9 8 8 9 11 10 12 12 12 12 10 12 14 16 17 18 18 19 19 20 21
1 1 1 1 1 1 1 1 1 1 2 4 4 4 6 6 8 8 8 7 8 8 8 8 8 8 8 7 8 8 8 8 8 10 10 12 10 11 11 13 14 15 17 19 20 20 22
1 1 1 1 1 1 1 1 1 1 1 3 4 5 5 5 7 8 8 8 8 8 8 8 8 7 7 8 9 8 8 7 7 7 7 8 8 9 8 11 13 12 14 17 19 21 22
1 1 1 1 1 1 1 1 1 1 1 2 3 2 3 3 6 7 7 8 7 8 7 8 8 7 8 9 8 8 8 8 8 9 9 7 8 8 8 10 9 14 17 18 19 21 22
1 1 1 1 1 1 1 1 1 1 1 1 2 1 2 3 5 6 6 6 7 7 7 7 8 9 9 8 6 5 6 7 9 10 10 10 8 7 7 8 11 13 16 17 19 19 19
0 0 0 1 1 0 0 0 0 1 1 1 1 1 0 2 4 6 5 6 5 6 6 6 8 8 7 6 5 3 3 6 7 9 13 12 10 8 8 7 8 12 15 18 18 15 14
0 0 0 0 0 0 0 0 0 0 0 1 1 1 0 1 4 5 4 4 5 5 4 5 6 6 7 4 3 3 4 6 5 6 8 9 9 8 8 7 10 14 15 17 13 14 13
0 0 0 0 0 0 0 0 0 0 0 0 1 1 0 1 3 4 5 4 4 5 3 4 4 5 5 3 3 4 4 5 5 7 7 8 8 8 6 6 7 14 13 10 9 12 11
0 0 0 0 0 0 0 0 0 0 0 0 0 1 1 0 1 3 4 5 5 5 4 5 4 4 4 3 3 3 3 4 5 4 7 6 9 7 6 8 10 10 9 10 8 10 9

GFSGBSN_925_temp_285.txt.gz
Temp
5 5 5 5 5 5 5 5 5 5 5 5 5 4 4 4 4 5 5 5 7 10 11 13 13 13 13 14 17 23 23 23 23 23 22 22 22 23 23 25 25 26 27 29 30 30 31
5 5 5 5 5 5 5 5 4 4 4 4 4 4 4 4 4 4 5 8 10 11 12 13 13 11 11 15 23 24 24 23 24 23 24 24 24 24 24 24 24 27 27 28 28 29 31
5 4 4 5 5 5 5 4 4 4 4 4 4 4 4 4 4 7 9 10 11 12 13 13 13 11 13 16 24 24 24 24 24 25 23 26 26 24 24 23 26 26 25 26 27 28 30
4 4 5 4 4 4 4 4 4 4 4 4 4 3 3 4 8 9 10 11 12 12 13 13 13 11 13 21 22 23 24 24 25 25 25 26 26 24 24 23 23 23 25 24 27 29 29
4 4 4 4 4 4 4 4 4 4 4 4 4 3 4 6 8 10 11 13 13 13 13 13 12 12 15 22 22 23 23 23 25 25 25 26 26 23 22 22 20 22 21 24 25 28 29
4 4 4 4 4 4 4 4 4 4 3 3 3 3 4 7 9 11 12 14 15 13 13 11 13 14 17 21 24 24 24 24 23 23 23 23 22 20 19 18 19 21 23 23 24 27 27
4 4 4 4 4 4 4 4 4 3 3 3 3 3 4 7 10 12 12 13 12 12 14 15 17 18 21 24 24 24 24 24 24 22 20 21 19 17 19 20 22 23 23 23 24 26 27
3 3 4 4 4 4 3 4 3 3 3 3 3 3 5 8 10 12 13 12 12 12 10 15 16 17 19 21 21 23 24 22 21 19 21 20 18 20 22 23 23 23 23 23 24 26 27
3 3 3 3 3 3 3 3 3 3 3 3 3 3 6 8 11 12 12 11 11 11 10 15 18 19 19 21 21 21 22 22 21 20 20 19 21 24 24 23 23 23 23 23 24 25 26
3 3 3 3 3 3 3 3 3 3 3 3 3 4 5 7 10 10 11 10 10 11 10 19 21 22 23 22 20 23 23 21 21 20 21 20 22 24 23 23 23 22 24 24 24 23 22
3 3 3 3 3 3 3 3 3 2 2 3 3 5 6 8 7 9 9 9 10 11 12 21 21 22 23 20 21 23 24 21 20 21 22 20 22 22 22 23 24 22 24 24 24 21 21
2 3 3 3 3 3 3 2 2 2 2 3 3 6 7 8 8 9 9 9 10 11 12 22 21 21 21 21 21 22 24 22 22 21 21 20 22 23 23 24 24 25 24 23 22 20 19
2 2 2 2 2 2 2 2 2 2 3 3 3 7 8 7 7 9 9 8 11 9 20 17 17 18 18 19 21 21 21 20 18 19 18 20 21 22 23 22 24 23 21 17 17 17 19
2 2 2 2 2 2 2 2 2 3 3 3 4 8 9 8 9 8 8 10 10 16 14 15 15 17 17 19 20 20 21 19 19 19 19 18 18 21 23 21 21 21 19 15 17 17 20
2 2 2 2 2 2 2 2 2 3 3 3 6 8 8 9 9 9 8 9 9 13 13 13 15 17 18 19 17 18 18 16 16 16 15 16 19 22 23 23 23 21 20 21 19 20 18
2 2 2 2 2 2 2 2 2 2 2 4 3 5 9 10 10 9 9 10 10 13 13 13 13 15 13 14 15 15 17 14 14 15 15 16 16 21 22 22 22 22 22 20 18 18 17
1 1 1 1 2 2 2 2 2 2 2 3 4 6 9 10 11 7 8 9 12 13 12 12 12 12 12 12 13 14 15 13 13 13 14 12 14 16 19 20 19 19 20 21 19 18 17
1 1 1 1 1 1 2 1 1 2 1 2 3 4 9 9 4 5 6 10 11 11 11 11 11 12 11 11 11 12 14 13 12 12 10 11 12 13 17 19 20 19 19 20 19 18 18
1 1 1 1 1 1 1 1 1 2 1 1 1 3 9 9 1 1 7 10 11 10 9 9 9 9 10 10 9 11 12 13 11 11 10 10 10 10 14 17 18 18 18 18 18 18 19
1 1 1 1 1 1 1 1 1 2 2 2 2 2 3 4 5 6 6 8 9 10 9 9 9 9 9 8 9 8 9 10 10 9 12 10 10 11 10 12 13 13 14 15 16 14 15
1 1 1 1 1 1 1 1 1 1 3 2 1 1 4 0 1 4 6 7 7 8 8 8 7 8 7 6 7 8 8 7 8 9 8 7 8 10 11 12 12 12 12 13 14 16 15
1 1 1 1 1 1 1 1 1 1 2 3 -0 -1 1 2 4 4 6 7 7 8 7 7 7 7 7 5 6 5 6 5 5 7 5 6 6 7 8 10 11 11 12 13 14 15 16
1 1 1 1 1 1 1 1 1 1 1 2 3 2 1 2 3 3 4 6 7 7 7 8 7 6 5 7 7 6 6 5 5 5 5 5 5 5 6 9 9 7 10 12 13 15 16
1 1 1 1 1 1 1 1 1 1 1 1 1 1 1 0 2 3 5 6 6 6 5 6 6 5 7 7 7 6 6 6 6 6 6 5 5 5 5 6 1 10 13 14 14 15 16
1 1 1 1 1 1 1 1 1 1 1 1 1 0 1 0 2 3 4 4 4 4 4 5 6 6 6 5 3 4 3 4 6 7 6 7 6 4 1 6 7 8 10 11 11 11 14
1 1 1 1 1 1 0 0 0 1 1 1 1 1 0 1 1 4 4 3 2 3 3 4 6 7 5 3 1 -2 1 4 4 7 8 8 7 5 4 3 3 10 12 13 12 10 10
0 0 0 0 0 0 0 0 0 1 1 1 0 1 -0 0 0 2 1 2 3 2 2 3 3 3 4 0 -4 -1 2 4 3 4 4 5 5 6 5 4 6 10 11 11 10 7 5
0 0 0 0 0 0 0 0 0 0 0 0 0 0 1 0 1 2 3 1 2 2 1 2 2 2 2 -1 -1 -0 1 3 3 4 4 4 3 4 6 5 5 6 8 6 5 4 5
0 0 0 0 0 0 0 0 0 0 1 1 0 1 0 -0 0 1 1 2 2 3 2 2 2 2 2 -1 -3 -3 -0 1 2 1 4 2 5 3 3 4 6 7 7 7 5 7 7